Location: *
(44.1392°N, 4.8079°E)
Time: 08:48:03
(UTC+00:00)

IDEFIX/ARIANE 42P - Pass Details

Date: 21 June 2021
Orbit: 784 x 803 km, 98.4° (Epoch: 31 July)

Event Time Altitude Azimuth Distance (km) Brightness Sun altitude
Rises 02:51:35 0° 9° (N) 3,315 6.8 -9.8°
Reaches altitude 10° 02:53:57 10° 6° (N) 2,377 5.9 -9.5°
Maximum altitude 02:59:04 56° 289° (WNW) 937 2.8 -8.9°
Drops below altitude 10° 03:04:09 10° 212° (SSW) 2,349 4.4 -8.2°
Enters shadow 03:04:20 - 211° (SSW) 2,423 4.5 -8.2°
